Location: Cherry Springs State Park
(41.6616°N, 77.8240°W)
Time: 12:37:53
(UTC-04:00)

Daily predictions for brighter satellites

Satellite Brightness Start Highest point End
(mag) Time Altitude Azimuth Time Altitude Azimuth Time Altitude Azimuth
Cosmos 44 3.9 20:20:30 10° SW 20:24:54 60° NW 20:29:37 10° NNE
ERS-2 2.4 20:22:14 10° SSE 20:25:46 50° ENE 20:29:21 10° N
Cosmos 494 Rocket 4.1 20:20:47 10° NNW 20:26:01 85° WSW 20:31:14 10° SSE
NOSS 7 (H) 4.4 20:23:05 10° SW 20:26:41 87° NW 20:30:00 10° NE
Cosmos 2219 Rocket 2.6 20:22:47 10° S 20:28:01 40° ESE 20:33:15 10° NE
Cosmos 2237 Rocket 3.4 20:24:52 10° SE 20:28:44 19° E 20:32:37 10° NE
Cosmos 1892 3.5 20:25:20 10° N 20:28:55 34° ENE 20:32:28 10° SE
H-2A R/B 4.1 20:30:08 10° ENE 20:30:30 10° ENE 20:30:52 10° NE
Cosmos 2154 Rocket 4.2 20:25:05 10° SSE 20:31:09 54° E 20:37:12 10° NNE
Cosmos 1805 Rocket 3.5 20:30:03 10° N 20:34:25 81° E 20:38:45 10° S
Cosmos 2184 Rocket 4.2 20:28:32 10° S 20:34:42 81° W 20:40:54 10° N
Cosmos 2278 Rocket 3.4 20:32:18 10° N 20:37:04 27° NE 20:41:43 10° ESE
Cosmos 1328 Rocket 4.3 20:36:54 10° SSE 20:40:50 33° E 20:44:48 10° NNE
Genesis I 4.5 20:38:44 10° NNW 20:42:20 29° NE 20:45:30 12° ESE
YAOGAN 6 2.7 20:39:18 10° SSE 20:42:48 55° ENE 20:46:23 10° N
Cosmos 2251 Rocket 3.6 20:38:23 10° NNW 20:43:47 78° ENE 20:49:08 10° SSE
Resurs 01 Rocket 1.9 20:39:45 10° SSE 20:44:02 50° ENE 20:48:20 10° N
Meteor 2-15 4.4 20:38:36 10° N 20:44:47 78° E 20:50:53 10° SSE
Cosmos 1437 4.4 20:44:29 10° SSW 20:47:28 38° WNW 20:50:30 10° N
Cosmos 44 Rocket 4.1 20:43:15 10° SW 20:47:55 56° NW 20:52:46 10° NNE
Envisat 3.3 20:43:14 10° S 20:48:18 71° WSW 20:53:23 10° NNW
Cosmos 1470 Rocket 4.4 20:48:13 10° NNE 20:52:11 32° ENE 20:55:28 14° SE
Cosmos 2341 Rocket 4.2 20:46:45 10° SSE 20:52:54 54° E 20:59:04 10° NNE
Meteor 2-21 4.4 20:48:21 10° S 20:54:28 84° E 21:00:41 10° N
ATLAS CENTAUR R/B 1.5 20:51:47 10° S 20:55:12 40° ESE 20:58:46 10° NE
Cosmos 1340 3.0 20:53:26 10° SSW 20:57:12 68° W 21:01:00 10° N
Cosmos 962 Rocket 4.5 20:52:07 10° S 20:58:07 61° E 21:04:12 10° NNE
Timation 1 Rocket 4.4 20:54:04 10° NNW 21:00:04 89° WSW 21:06:02 10° SSE
Cosmos 2098 Rocket 4.5 20:58:56 16° ESE 21:00:44 20° E 21:03:44 10° NE
NOSS 0 Rocket 4.0 21:01:07 10° S 21:07:05 53° ESE 21:13:05 10° NE
Cosmos 1295 Rocket 4.5 21:01:32 10° S 21:07:48 69° E 21:14:05 10° NNE
Cosmos 1825 3.1 21:06:53 10° NNE 21:10:16 30° ENE 21:11:38 23° ESE
SL-24 R/B - RUBIN 2 4.2 21:07:06 10° NW 21:11:20 52° WSW 21:15:15 12° SSE
BREEZE-M DEB (TANK) 4.2 21:10:26 10° W 21:12:52 23° NNW 21:14:44 10° NE
Thor Agena Rocket 4.1 21:07:59 10° N 21:13:10 65° WNW 21:18:23 10° SSW
Cosmos 1666 Rocket 4.2 21:10:29 10° NNW 21:14:54 59° W 21:19:17 10° S
SJ-11-01 4.3 21:13:25 10° SSE 21:18:05 85° WSW 21:22:46 10° NNW
SL-16 R/B 3.4 21:17:50 20° ESE 21:18:05 20° E 21:22:05 10° NE
Cosmos 1939 Rocket 3.5 21:15:30 10° S 21:19:16 53° W 21:23:07 10° NNW
Resurs 1-3 4.0 21:15:35 10° S 21:19:56 64° WSW 21:24:19 10° NNW
USA 186 3.3 21:18:31 10° SSW 21:20:22 22° W 21:22:15 10° NW
Cosmos 1933 Rocket 3.7 21:16:40 10° N 21:20:59 54° E 21:23:24 24° SSE
Meteor 2-3 Rocket 3.7 21:15:56 10° N 21:21:34 87° W 21:27:12 10° S
SL-8 Rocket 4.0 21:15:49 10° S 21:22:00 60° E 21:28:10 10° NNE
GEOS 3 Rocket 4.4 21:21:49 10° ENE 21:26:24 29° ESE 21:30:55 10° S
Cosmos 220 Rocket 4.0 21:22:53 10° NNW 21:27:15 84° WSW 21:29:56 22° SSE
Sich 1 4.4 21:23:28 10° NNW 21:27:25 37° W 21:31:20 10° SSW
ARGOS 3.6 21:25:39 25° SE 21:28:24 44° ENE 21:33:27 10° N
Cosmos 1869 3.7 21:27:19 31° SE 21:28:36 41° E 21:32:24 10° NNE
Cosmos 1151 Rocket 2.9 21:24:54 10° S 21:29:07 74° E 21:33:24 10° NNE
ATLAS 2AS CENTAUR R/B 2.9 21:22:11 10° NW 21:30:09 89° WSW 21:35:15 22° SSE
Spot 2 Rocket 3.7 21:26:22 11° S 21:31:16 73° WSW 21:36:22 10° NNW
Lacrosse 5 4.3 21:34:57 10° NNW 21:37:44 15° N 21:40:31 10° NE
BREEZE-M DEB (TANK) 4.4 21:31:55 10° W 21:38:28 31° NNW 21:41:04 11° NE
SPOT 5 4.1 21:40:05 22° ENE 21:40:36 23° ENE 21:44:05 10° NNE
Cosmos 1980 3.7 21:38:51 10° SSW 21:44:33 90° W 21:50:16 10° NNE
Cosmos 2297 4.4 21:43:10 10° N 21:48:26 38° ENE 21:50:11 31° E
Meteor 2-10 Rocket 3.8 21:46:07 26° SSE 21:49:15 57° E 21:54:57 10° NNE
Cosmos 2333 Rocket 3.1 21:47:44 10° SW 21:53:13 49° WNW 21:58:42 10° NNE
Cosmos 864 Rocket 4.3 21:49:04 17° S 21:53:57 76° E 22:00:06 10° N
Cosmos 2369 Rocket 4.4 21:54:34 10° NNE 21:56:23 11° NE 21:58:11 10° ENE
Cosmos 1455 4.4 21:54:58 10° SW 21:58:12 25° WNW 22:01:27 10° NNW
Cosmos 2228 Rocket 3.9 21:53:57 10° SSW 21:58:12 50° W 22:02:29 10° N
Cosmos 1515 Rocket 4.4 21:54:05 10° SSW 21:58:24 50° W 22:02:46 10° N
Helios 1A 3.6 21:59:12 39° ENE 21:59:12 39° ENE 22:03:05 10° N
NOSS 3-4 (A) 4.1 21:53:34 10° NNW 22:00:26 54° NE 22:03:34 34° ESE
NOSS 3-4 (C) 4.1 21:53:40 10° NNW 22:00:32 54° NE 22:03:39 34° ESE
Cosmos 1408 3.3 21:57:02 10° NNW 22:00:35 50° W 22:01:43 35° SW
SPOT 1/Viking Rocket 4.2 22:00:11 34° E 22:00:55 36° ENE 22:05:40 10° N
USA 81 4.1 21:56:16 10° N 22:01:29 59° E 22:02:39 47° SE
H-2A R/B 1.9 22:07:50 51° SSE 22:09:06 79° ENE 22:14:06 10° N
Cosmos 407 Rocket 3.4 22:05:15 10° NNW 22:10:22 65° ENE 22:11:08 56° ESE
SL-8 R/B 3.7 22:05:39 10° WSW 22:10:27 82° NNW 22:12:51 30° ENE
ERS-1 Rocket 2.9 22:10:13 56° SE 22:11:16 76° ENE 22:16:18 10° N
Cosmos 2219 Rocket 4.1 22:07:03 10° WSW 22:12:02 31° NW 22:17:02 10° N
Cosmos 2237 Rocket 2.7 22:06:44 10° SW 22:12:15 59° WNW 22:17:51 10° NNE
USA 267 3.3 22:05:58 10° NE 22:12:19 52° SE 22:18:38 10° SSW
MetOp-A 4.2 22:12:26 38° S 22:14:29 73° WSW 22:19:51 10° NNW
Cosmos 1862 3.7 22:10:38 10° N 22:14:04 53° NE 22:14:04 53° NE
Cosmos 1371 Rocket 4.2 22:12:33 10° SSW 22:17:50 71° WNW 22:23:13 10° NNE
Resurs 01 Rocket 4.3 22:18:10 10° SW 22:20:47 15° W 22:23:25 10° NW
Cosmos 2278 Rocket 2.9 22:15:56 10° NW 22:21:22 47° WSW 22:23:35 32° SSW
SL-08 RB Rocket 3.8 22:24:45 62° SW 22:25:15 68° W 22:29:43 10° NNW
Cosmos 405 Rocket 3.8 22:28:05 38° NNE 22:28:05 38° NNE 22:30:36 10° NNE
ATLAS 5 CENTAUR R/B 4.3 22:24:39 10° N 22:28:40 19° NE 22:31:07 15° ENE
Cosmos 676 Rocket 4.1 22:24:03 10° NNW 22:29:15 59° ENE 22:29:20 59° ENE
Cosmos 1727 Rocket 4.1 22:23:09 10° NNW 22:29:17 72° W 22:31:34 40° SSW
Cosmos 1821 Rocket 4.1 22:33:03 55° ESE 22:33:27 56° E 22:39:36 10° NNE
ATLAS CENTAUR R/B 4.0 22:31:40 10° W 22:34:21 19° NW 22:37:08 10° N
Cosmos 2056 Rocket 4.1 22:35:44 20° SW 22:39:30 58° WNW 22:44:51 10° NNE
Cosmos 1452 Rocket 4.2 22:42:01 40° NE 22:42:01 40° NE 22:45:36 10° NNE
USA 234 4.3 22:43:06 26° ENE 22:46:01 38° NNE 22:51:56 10° NW
Landsat 7 4.1 22:46:49 62° NNE 22:46:49 62° NNE 22:50:53 10° N
Cosmos 2123 Rocket 4.4 22:44:05 10° N 22:49:58 48° ENE 22:49:58 48° ENE
SL-16 R/B 2.7 22:59:34 36° WSW 23:01:41 58° WNW 23:07:17 10° NNE
Cosmos 2344 3.4 22:58:40 38° SSW 23:02:01 81° ESE 23:10:19 10° NE
Terra 2.5 23:05:06 49° N 23:05:06 49° N 23:08:38 10° N
Cosmos 1535 Rocket 4.4 23:04:34 81° E 23:04:34 81° E 23:10:55 10° N
GEOS 3 Rocket 4.4 22:59:23 10° NNE 23:04:35 51° NW 23:09:40 10° WSW
Cosmos 1140 Rocket 3.8 23:02:21 10° NNW 23:06:46 62° NW 23:06:46 62° NW
CZ-4C R/B 3.7 23:13:19 26° NE 23:13:19 26° NE 23:15:54 10° NE
CZ-2C R/B 4.0 23:14:25 37° NNE 23:14:25 37° NNE 23:17:30 10° N
Cosmos 1943 Rocket 3.6 23:09:11 10° N 23:13:21 27° NE 23:13:21 27° NE
Cosmos 1954 Rocket 4.5 23:08:55 10° NNW 23:13:15 56° WNW 23:13:15 56° WNW
SPOT 5 4.1 23:19:20 33° WNW 23:19:20 33° WNW 23:22:40 10° NNW
Helios 1B rocket 4.2 23:17:05 10° N 23:19:46 31° NW 23:19:46 31° NW
Lacrosse 5 3.4 23:17:43 10° NNW 23:21:58 30° NNE 23:21:58 30° NNE
Cosmos 1605 Rocket 4.3 23:24:41 58° NE 23:24:41 58° NE 23:29:58 10° NNE
Cosmos 2369 Rocket 3.0 23:35:58 10° NNW 23:40:15 48° N 23:40:15 48° N
